TimeEST,TemperatureF,Dew PointF,Humidity,Sea Level PressureIn,VisibilityMPH,Wind Direction,Wind SpeedMPH,Gust SpeedMPH,PrecipitationIn,Events,Conditions,WindDirDegrees,DateUTC
12:53 AM,35.1,19.9,54,30.25,10.0,NW,9.2,-,N/A,,Clear,310,2013-01-15 05:53:00
1:53 AM,34.0,19.9,56,30.25,10.0,NW,4.6,-,N/A,,Clear,310,2013-01-15 06:53:00
2:53 AM,33.1,19.0,56,30.24,10.0,NW,6.9,-,N/A,,Clear,320,2013-01-15 07:53:00
3:53 AM,33.1,19.0,56,30.22,10.0,WNW,4.6,-,N/A,,Clear,300,2013-01-15 08:53:00
4:53 AM,32.0,18.0,56,30.22,10.0,WNW,4.6,-,N/A,,Clear,300,2013-01-15 09:53:00
5:53 AM,30.9,18.0,59,30.25,10.0,NNW,3.5,-,N/A,,Clear,330,2013-01-15 10:53:00
6:53 AM,28.9,18.0,64,30.27,10.0,WNW,3.5,-,N/A,,Partly Cloudy,290,2013-01-15 11:53:00
7:53 AM,30.0,19.0,64,30.30,10.0,Calm,Calm,-,N/A,,Scattered Clouds,0,2013-01-15 12:53:00
8:53 AM,33.1,21.0,61,30.31,10.0,Calm,Calm,-,N/A,,Overcast,0,2013-01-15 13:53:00
9:53 AM,33.1,21.0,61,30.31,10.0,Calm,Calm,-,N/A,,Overcast,0,2013-01-15 14:53:00
10:53 AM,34.0,21.0,59,30.29,10.0,Calm,Calm,-,N/A,,Overcast,0,2013-01-15 15:53:00
11:53 AM,35.1,19.9,54,30.27,10.0,NNE,3.5,-,N/A,,Overcast,20,2013-01-15 16:53:00
12:53 PM,35.1,19.9,54,30.25,10.0,Calm,Calm,-,N/A,,Overcast,0,2013-01-15 17:53:00
1:53 PM,35.1,18.0,50,30.26,10.0,West,3.5,-,N/A,,Overcast,260,2013-01-15 18:53:00
2:53 PM,35.1,19.0,52,30.26,10.0,SW,3.5,-,N/A,,Overcast,220,2013-01-15 19:53:00
3:53 PM,35.1,19.9,54,30.26,10.0,Calm,Calm,-,N/A,,Overcast,0,2013-01-15 20:53:00
4:53 PM,34.0,19.9,56,30.26,10.0,Calm,Calm,-,N/A,,Overcast,0,2013-01-15 21:53:00
5:53 PM,33.1,18.0,54,30.27,10.0,NW,4.6,-,N/A,,Overcast,310,2013-01-15 22:53:00
6:53 PM,32.0,18.0,56,30.28,10.0,North,8.1,-,N/A,,Overcast,360,2013-01-15 23:53:00
7:53 PM,30.0,18.0,61,30.29,10.0,North,6.9,-,N/A,,Mostly Cloudy,360,2013-01-16 00:53:00
8:53 PM,28.9,17.1,61,30.28,10.0,North,6.9,-,N/A,,Clear,360,2013-01-16 01:53:00
9:53 PM,28.9,17.1,61,30.28,10.0,NNE,3.5,-,N/A,,Clear,20,2013-01-16 02:53:00
10:53 PM,28.0,17.1,63,30.26,10.0,NE,4.6,-,N/A,,Clear,50,2013-01-16 03:53:00
11:53 PM,28.0,16.0,61,30.25,10.0,NE,3.5,-,N/A,,Clear,50,2013-01-16 04:53:00